This demonstration page uses our WeatherBlox Daily Observations layout. Learn more.

38.89511, -77.03637

Hourly Observations for June 11, 2018

Temp ( °F °C ) Dew Point ( °F °C ) Humidity (%) Winds ( mph kmh ) Pressure ( in mb ) Visibility ( mi km ) Precip ( " mm )
12:52 am 00:52 Cloudy with Mist and Fog 66 18.9 62 16.7 87 87 NNE 10 17 29.88 1012 5 8.04672 0 0
1:52 am 01:52 Cloudy with Mist and Fog 64 17.8 61 16.1 90 90 NE 14 22 29.88 1012 4 6.437376 0 0
2:49 am 02:49 Cloudy with Light Rain 63 17 61 16 94 94 NNE 12 19 29.91 1013 5 8.04672 0.04 1.016
2:52 am 02:52 Cloudy with Light Rain 63 17.2 60 15.6 90 90 NNE 12 19 29.88 1012 5 8.04672 0.04 1.016
3:06 am 03:06 Cloudy with Thunderstorms 63 17.2 59 15 87 87 N 10 17 29.91 1013 3 4.828032 0.07 1.778
3:52 am 03:52 Cloudy with Light Rain 62 16.7 59 15 90 90 NE 12 19 29.88 1012 6 9.656064 0.37 9.398
4:52 am 04:52 Cloudy 62 16.7 58 14.4 86 86 N 15 24 29.91 1013 10 16.09344 0.001 0.001
5:40 am 05:40 Cloudy with Light Rain 61 16.1 56 13.3 84 84 NNE 16 26 29.94 1014 5 8.04672 0.001 0.001
5:52 am 05:52 Cloudy with Light Rain 61 16.1 57 13.9 87 87 NE 14 22 29.91 1013 4 6.437376 0.01 0.254
6:19 am 06:19 Cloudy with Light Rain 61 16.1 57 13.9 87 87 NNE 14 22 29.94 1014 4 6.437376 0.001 0.001
6:28 am 06:28 Cloudy with Light Rain 61 16.1 57 13.9 87 87 ENE 8 13 29.94 1014 7 11.265408 0.001 0.001
6:52 am 06:52 Cloudy with Light Rain 61 16.1 57 13.9 87 87 NE 10 17 29.94 1014 10 16.09344 0.001 0.001
7:48 am 07:48 Cloudy 63 17 57 14 83 83 NNE 9 15 29.97 1015 10 16.09344 0.001 0.001
7:52 am 07:52 Cloudy 63 17.2 58 14.4 84 84 NNE 13 20 29.97 1015 10 16.09344 0.001 0.001
8:52 am 08:52 Cloudy 62 16.7 58 14.4 86 86 NE 13 20 29.97 1015 10 16.09344 0 0
9:13 am 09:13 Cloudy 63 17.2 58 14.4 84 84 NNE 14 22 30 1016 10 16.09344 0 0
9:52 am 09:52 Cloudy with Light Rain 62 16.7 58 14.4 86 86 NNE 12 19 30 1016 10 16.09344 0.001 0.001
9:59 am 09:59 Cloudy with Light Rain 62 16.7 57 13.9 84 84 NNE 13 20 30 1016 10 16.09344 0.001 0.001
10:52 am 10:52 Cloudy 63 17.2 58 14.4 84 84 NNE 10 17 30.03 1017 10 16.09344 0.001 0.001
11:34 am 11:34 Cloudy 63 17.2 58 14.4 84 84 NNE 13 20 30.06 1018 10 16.09344 0 0
11:52 am 11:52 Cloudy 63 17.2 58 14.4 84 84 NNE 12 19 30.03 1017 10 16.09344 0 0
12:07 pm 12:07 Cloudy 64 17.8 58 14.4 81 81 ENE 6 9 30.03 1017 10 16.09344 0 0
12:28 pm 12:28 Cloudy 64 17.8 59 15 84 84 ENE 13 20 30.03 1017 10 16.09344 0 0
12:52 pm 12:52 Cloudy 65 18.3 59 15 81 81 NE 8 13 30.03 1017 10 16.09344 0 0
1:38 pm 13:38 Cloudy 65 18.3 59 15 81 81 NE 10 17 30.06 1018 10 16.09344 0 0
1:49 pm 13:49 Cloudy 64 18 59 15 83 83 NE 10 17 30.06 1018 10 16.09344 0 0
1:52 pm 13:52 Cloudy 66 18.9 59 15 78 78 NE 13 20 30.03 1017 10 16.09344 0 0
2:29 pm 14:29 Cloudy 66 18.9 59 15 78 78 NNE 10 17 30.06 1018 10 16.09344 0 0
2:41 pm 14:41 Cloudy 65 18.3 59 15 81 81 ENE 14 22 30.06 1018 10 16.09344 0 0
2:52 pm 14:52 Cloudy 65 18.3 59 15 81 81 NE 9 15 30.06 1018 10 16.09344 0 0
3:52 pm 15:52 Cloudy 65 18.3 59 15 81 81 NNE 12 19 30.03 1017 10 16.09344 0 0
4:38 pm 16:38 Cloudy 65 18.3 59 15 81 81 E 10 17 30.06 1018 10 16.09344 0 0
4:52 pm 16:52 Cloudy 65 18.3 58 14.4 78 78 E 12 19 30.06 1018 10 16.09344 0 0
5:52 pm 17:52 Cloudy 65 18.3 58 14.4 78 78 E 10 17 30.06 1018 10 16.09344 0 0
6:52 pm 18:52 Cloudy 64 17.8 58 14.4 81 81 E 9 15 30.06 1018 10 16.09344 0 0
7:52 pm 19:52 Cloudy 65 18.3 57 13.9 76 76 E 6 9 30.09 1019 10 16.09344 0 0
8:52 pm 20:52 Cloudy 64 17.8 57 13.9 78 78 ENE 6 9 30.12 1020 10 16.09344 0 0
9:52 pm 21:52 Cloudy 65 18.3 57 13.9 76 76 ENE 7 11 30.15 1021 10 16.09344 0 0
10:52 pm 22:52 Cloudy 65 18.3 56 13.3 73 73 ENE 5 7 30.15 1021 10 16.09344 0 0
11:52 pm 23:52 Mostly Cloudy 63 17.2 56 13.3 78 78 E 3 6 30.18 1022 10 16.09344 0 0

Powered by AerisWeather